Content
SEND FEEDBACK

Daily
Averages
Monthly
Summary
Argentina

LAS HIGUERAS, ARGENTINA


Home > South America > Argentina
Elevation: 421 meters     Latitude: 33 01N     Longitude: 064 13W

WEATHER
 
SELECT A DAY
Number of Records: 58,385;   Date Range: 11/29/96 - 8/31/14
 
SHARE

PRINT THIS DATA

[ ← Previous Day ]
WEATHER ALMANAC - 31 JANUARY, 2013
[ Next Day → ]
[ °F ]   °C
Weather ElementAverageHighLow
Temperature24.1 °C28 °C (5:00 pm)18.3 °C (6:00 am)
Dewpoint18.3 °C21 °C (9:00 pm)15 °C (9:00 am)
Humidity69.4 %92 % (6:00 am)44 % (6:00 pm)
Barometer1008.1 hPa1011.2 hPa (10:00 am)1005.1 hPa (6:00 pm)
Wind Speed30.1 km/h181.5 km/h (9:00 am)
Weather ElementAverage
Visibility12.2 km
Wind DirectionSSW (216.2 °)

Weather ElementTotal
Precipitation---
Cooling Degree Days4.8 (Base 18.3)
Growing Degree Days13.2 (Base 10)
Averaged from 21 records on 31 January, 2013
WEATHER CONDITIONS BREAKOUT
WIND DIRECTION BREAKOUT
WEATHER BY HOUR - 31 JANUARY, 2013
[ °F ]   °C
Local TimeTemperatureDewpointHumidityBarometerVisibilityWind DirectionWind SpeedGust SpeedPrecipitationEventsConditions
6:00 AM18.3 °C17.2 °C92 %1008.8 hPa8 kmWest (270°)18.5 km/hRain-ThunderstormThunderstorms and Rain
9:00 AM19.4 °C15.6 °C73 %1008.5 hPa14.5 kmNNW (340°)16.7 km/hThunderstormLight Thunderstorm
9:00 AM20 °C15 °C73 %1010.2 hPa10 kmNNW (340°)181.5 km/hMostly Cloudy
10:00 AM20 °C17 °C83 %1011.2 hPa10 kmNorth (360°)16.7 km/hMostly Cloudy
11:00 AM21 °C17 °C78 %1011.2 hPa10 kmEast (90°)22.2 km/hMostly Cloudy
12:00 PM24 °C19 °C73 %1011.2 hPaEast (90°)31.5 km/hClear
12:00 PM23.3 °C18.9 °C68 %1009.5 hPa14.5 kmEast (90°)31.5 km/hOvercast
1:00 PM24 °C19 °C73 %1010.2 hPaNNE (20°)35.2 km/hClear
2:00 PM24 °C18 °C69 %1010.2 hPaNorth (360°)29.6 km/hClear
3:00 PM26 °C19 °C65 %1009.1 hPaNorth (360°)31.5 km/hClear
3:00 PM26.7 °C19.4 °C56 %1007.1 hPa14.5 kmNorth31.5 km/hClear
4:00 PM27 °C17 °C54 %1008.1 hPaNorth (360°)20.4 km/hClear
5:00 PM28 °C18 °C54 %1007.1 hPaNorth (360°)20.4 km/hClear
6:00 PM27.8 °C17.8 °C44 %1005.1 hPa14.5 kmNorth20.4 km/hClear
6:00 PM27 °C17 °C54 %1006.1 hPaNorth (360°)20.4 km/hClear
7:00 PM28 °C19 °C58 %1006.1 hPaNorth (360°)22.2 km/hClear
8:00 PM26 °C20 °C69 %1006.1 hPaNNE (20°)16.7 km/hClear
9:00 PM24.4 °C20.6 °C73 %1005.4 hPa14.5 kmNNE (20°)16.7 km/hClear
9:00 PM24 °C21 °C83 %1007.1 hPaNNE (20°)16.7 km/hClear
10:00 PM23 °C20 °C83 %1007.1 hPaNorth (360°)13 km/hClear
11:00 PM23 °C20 °C83 %1008.1 hPaNorth (360°)16.7 km/hClear
Hourly data recorded from SAOC, located 0 kilometers away from Las Higueras, Argentina







STORIES FROM OUR PARTNERS